Regional Weather Roundup
Issued by NWS

Home | Current Version | Previous Version | Graphics & Text | Print | Product List | Glossary On
Versions: 1 2 3 4 5 6 7 8 9 10 11 12 13 14 15 16 17 18 19 20 21 22 23 24 25 26 27 28 29 30 31 32 33 34 35 36 37 38 39 40 41 42 43 44 45 46 47 48 49 50
000
ASUS43 KMKX 181600
RWRWI

WISCONSIN REGIONAL WEATHER ROUNDUP
NATIONAL WEATHER SERVICE MILWAUKEE/SULLIVAN WI
1100 AM CDT THU SEP 18 2014

NOTE: "FAIR" INDICATES FEW OR NO CLOUDS BELOW 12,000 FEET WITH NO
SIGNIFICANT WEATHER AND/OR OBSTRUCTIONS TO VISIBILITY.

WIZ001-002-006>008-014>016-023>028-181700-
NORTHWEST WISCONSIN

CITY           SKY/WX    TMP DP  RH WIND       PRES   REMARKS
SUPERIOR ARPT  CLOUDY    47  41  80 E6        30.18S
ASHLAND        CLOUDY    46  41  82 E3        30.19R
HAYWARD        CLOUDY    50  46  86 SE7       30.15S
SIREN          CLOUDY    51  48  89 SE5       30.13S
RICE LAKE      CLOUDY    50  47  89 SE8       30.16S
LADYSMITH      CLOUDY    51  47  88 SE5       30.18R
EAU CLAIRE     NOT AVBL
MENOMONIE      CLOUDY    51  50  93 SE9       30.15R
NEW RICHMOND   CLOUDY    53  52  96 SE8       30.13R
OSCEOLA        CLOUDY    54  54 100 SE6       30.15R
$$

WIZ003>005-009-010-017-018-181700-
NORTH CENTRAL WISCONSIN

CITY           SKY/WX    TMP DP  RH WIND       PRES   REMARKS
WOODRUFF       CLOUDY    44  40  84 SE9       30.19R
RHINELANDER    CLOUDY    42  38  85 SE7       30.20S
EAGLE RIVER    CLOUDY    42  35  76 SE6       30.20R
LAND O LAKES   CLOUDY    43  36  78 S6        30.20S
PHILLIPS       CLOUDY    47  44  90 S8        30.16S
TOMAHAWK       CLOUDY    44  41  88 SE6       30.20R
MEDFORD        CLOUDY    44  43  97 SE5       30.18S FOG
MERRILL        CLOUDY    43  41  91 S6        30.21R
$$

WIZ029-030-035-036-043>047-181700-
CENTRAL WISCONSIN

CITY           SKY/WX    TMP DP  RH WIND       PRES   REMARKS
WAUSAU         CLOUDY    44  40  85 E8        30.20R
MOSINEE        CLOUDY    45  43  93 SE6       30.22R
MARSHFIELD     CLOUDY    47  44  90 SE10      30.19S FOG
STEVENS POINT  CLOUDY    43  40  87 E6        30.21S
WAUPACA        CLOUDY    49  43  80 E5        30.22S
WAUTOMA        NOT AVBL
WISC RAPIDS    CLOUDY    48  44  86 E6        30.22R
CAMP DOUGLAS   NOT AVBL
$$

WIZ011>013-019>022-031-037>040-048>050-181700-
NORTHEAST WISCONSIN

CITY           SKY/WX    TMP DP  RH WIND       PRES   REMARKS
ANTIGO         CLOUDY    41  37  86 E3        30.21S
STURGEON BAY   CLOUDY    52  41  66 E3        30.22S
GREEN BAY      CLOUDY    50  42  74 VRB3      30.22S
MANITOWOC      NOT AVBL
APPLETON       CLOUDY    48  39  71 NE6       30.22S
CLINTONVILLE   CLOUDY    46  39  76 CALM      30.23R
OSHKOSH        CLOUDY    51  45  79 E7        30.21R
$$

WIZ032>034-041-042-053>061-181700-
SOUTHWEST WISCONSIN

CITY           SKY/WX    TMP DP  RH WIND       PRES   REMARKS
LA CROSSE      CLOUDY    57  51  80 E6        30.16S
SPARTA         CLOUDY    53  51  92 E6        30.18S
VIROQUA        CLOUDY    52  52 100 SE6       30.17R VSB 1/2
BOSCOBEL       CLOUDY    57  52  83 NE5       30.18S
PRAIRIE DU CHI SUNNY     57  51  79 NE5       30.15S
PLATTEVILLE    FAIR      58  53  83 E6        30.18R
$$

WIZ056-057-062-063-064-067-068-181700-
SOUTH CENTRAL WISCONSIN

CITY           SKY/WX    TMP DP  RH WIND       PRES   REMARKS
BARABOO/DELLS  CLOUDY    49  47  92 SE7       30.19S FOG
LONE ROCK      NOT AVBL
WATERTOWN      CLOUDY    51  50  95 NE6       30.19S
MADISON        CLOUDY    52  49  89 SE7       30.19S FOG
MIDDLETON      CLOUDY    53  53 100 E6        30.20R
MONROE         FOG       50  50 100 E5        30.18R VSB 3/4
JANESVILLE     CLOUDY    55  52  88 E6        30.18R
$$

WIZ051-052-058>065-066-070>072-181700-
SOUTHEAST WISCONSIN

CITY           SKY/WX    TMP DP  RH WIND       PRES   REMARKS
MILWAUKEE      CLOUDY    56  50  80 N10       30.18S
WAUKESHA       CLOUDY    54  48  82 N3        30.19S
MILWAUKEE/TIMM CLOUDY    54  48  82 NE7       30.19S
RACINE         CLOUDY    58  52  80 N15       30.19R
BURLINGTON     CLOUDY    56  51  82 NE6       30.18R
KENOSHA        CLOUDY    60  54  80 VRB5      30.18R
FOND DU LAC    CLOUDY    51  45  79 E3        30.21S
SHEBOYGAN      CLOUDY    53  45  74 VRB6      30.20S
WEST BEND      CLOUDY    50  45  81 N5        30.20R
JUNEAU         CLOUDY    49  46  90 NE7       30.21S
$$

LSZ147-162-181700-
LAKE SUPERIOR

STATION/POSITION TIME  TEMP    WIND        PRES    WAVE
                       AIR SEA DIR/SP/G            HT/PER
                 (UTC) (F)     (DEG/KT/KT) (MB)    (FT/S)
W MID LAKE BUOY  1450   44 46  130/ 12/ 14 1023.1S   1/ 5
DEVILS ISLAND    1500   44     110/ 12/ 15 1023.1R
PORT WING        1500   49      80/  6/ 10 1022.0R
SAXON HARBOR     1500   45      60/  4/  5 1022.0S
$$

LMZ867-665-643>646-181700-
LAKE MICHIGAN

STATION/POSITION TIME  TEMP    WIND        PRES    WAVE
                       AIR SEA DIR/SP/G            HT/PER
                 (UTC) (F)     (DEG/KT/KT) (MB)    (FT/S)
N MID LAKE BUOY  1450   49 58   60/ 12/ 16 1022.7R   2/ 4
NORTHPORT PIER   1500   50      10/  8/ 12 1023.0R
KEWAUNEE LAKESHO 1500   51      20/  7/ 12 1021.6R
SHEBOYGAN LAKESH 1500   48 48  350/ 12/ 13 1023.1R
PORT WASHINGTON  1500   54      20/  5/  8 1022.7
ATWATER BUOY     1500   53     360/ 16/ 19 1022.7R
MILWAUKEE LAKESH 1500   53     350/ 11/ 14   N/A
S MID LAKE BUOY  1450   62 63   CALM  /  2 1021.0R   3/ 6
KENOSHA   LAKESH 1500   56     360/ 11/ 12 1021.0S
$$

TC  - TEMPERATURE IN CELSIUS
VSB - VISIBILITY IN STATUTE MILES
WCI - WIND CHILL INDEX
HX  - HEAT INDEX



USA.gov is the U.S. government's official web portal to all federal, state and local government web resources and services.